Torna al catalogo

LEMUR-2 DELOITTE-2

AttivoScienzaSSO
NORAD 68491·PAYLOAD·🇺🇸 United States

Lanciato Mar 30, 2026 da Vandenberg Space Force Base

Loading…

Prossimi Passaggi (prossime 24 ore)

TLE

AggiornatoSource: Space-Track

Epoca: Sep 14, 2026, 14:44 UTC

1 68491U 26067CD  26257.61434496  .00004230  00000-0  42037-3 0  9996
2 68491  97.7650 214.4048 0004389 103.1660 257.0049 14.92222365 25053

Traccia LEMUR-2 DELOITTE-2 in tempo reale con AllMySat

Download on the App Store